Time,TemperatureF,DewpointF,PressureIn,WindDirection,WindDirectionDegrees,WindSpeedMPH,WindSpeedGustMPH,Humidity,HourlyPrecipIn,Conditions,Clouds,dailyrainin,SoftwareType,DateUTC
2013-01-15 00:00:00,42.8,35.8,30.18,SSW,202,2.2,8.1,76,0.01,RA,,0.00,WeatherDisplay:10.37,2013-01-15 05:00:00,
2013-01-15 00:03:00,42.8,36.1,30.19,NW,315,4.5,8.1,77,0.01,RA,,0.00,WeatherDisplay:10.37,2013-01-15 05:03:00,
2013-01-15 00:08:00,42.8,36.1,30.19,WNW,292,2.4,4.6,77,0.01,RA,,0.00,WeatherDisplay:10.37,2013-01-15 05:08:00,
2013-01-15 00:13:00,42.6,36.2,30.19,NW,315,5.9,5.9,78,0.01,CLR,,0.00,WeatherDisplay:10.37,2013-01-15 05:13:00,
2013-01-15 00:18:00,42.4,36.4,30.18,NNW,338,2.2,3.5,79,0.00,RA,,0.01,WeatherDisplay:10.37,2013-01-15 05:18:00,
2013-01-15 00:23:00,42.3,36.5,30.18,NNW,338,1.4,2.3,80,0.00,RA,,0.01,WeatherDisplay:10.37,2013-01-15 05:23:00,
2013-01-15 00:28:00,42.1,36.7,30.18,NNW,338,1.1,3.5,81,0.00,CLR,,0.02,WeatherDisplay:10.37,2013-01-15 05:28:00,
2013-01-15 00:33:00,41.9,37.1,30.17,NNE,22,1.1,2.3,83,0.01,RA,,0.02,WeatherDisplay:10.37,2013-01-15 05:33:00,
2013-01-15 00:38:00,41.7,36.6,30.17,NNW,338,0.9,1.1,82,0.00,RA,,0.02,WeatherDisplay:10.37,2013-01-15 05:38:00,
2013-01-15 00:43:00,41.5,36.8,30.17,North,0,6.2,6.2,83,0.00,CLR,,0.02,WeatherDisplay:10.37,2013-01-15 05:43:00,
2013-01-15 00:48:00,41.4,36.6,30.17,NNE,22,2.0,3.5,83,0.00,CLR,,0.02,WeatherDisplay:10.37,2013-01-15 05:48:00,
2013-01-15 00:53:00,41.4,36.9,30.18,NNW,338,3.1,8.1,84,0.00,CLR,,0.02,WeatherDisplay:10.37,2013-01-15 05:53:00,
2013-01-15 00:58:00,41.4,36.6,30.18,NNE,22,2.2,2.3,83,0.00,CLR,,0.02,WeatherDisplay:10.37,2013-01-15 05:58:00,
2013-01-15 01:03:00,41.2,36.1,30.18,North,0,4.5,8.1,82,0.02,CLR,,0.02,WeatherDisplay:10.37,2013-01-15 06:03:00,
2013-01-15 01:08:00,41.2,36.4,30.19,NNW,338,4.7,5.8,83,0.02,CLR,,0.02,WeatherDisplay:10.37,2013-01-15 06:08:00,
2013-01-15 01:13:00,41.2,36.4,30.19,NNW,338,1.4,5.8,83,0.02,CLR,,0.02,WeatherDisplay:10.37,2013-01-15 06:13:00,
2013-01-15 01:18:00,41.0,36.2,30.19,North,0,0.5,3.5,83,0.01,CLR,,0.02,WeatherDisplay:10.37,2013-01-15 06:18:00,
2013-01-15 01:23:00,41.0,35.9,30.19,NW,315,3.3,3.3,82,0.02,RA,,0.03,WeatherDisplay:10.37,2013-01-15 06:23:00,
2013-01-15 01:28:00,40.8,35.7,30.19,North,0,3.3,3.3,82,0.02,RA,,0.03,WeatherDisplay:10.37,2013-01-15 06:28:00,
2013-01-15 01:33:00,40.6,35.9,30.20,North,0,3.3,5.8,83,0.02,RA,,0.04,WeatherDisplay:10.37,2013-01-15 06:33:00,
2013-01-15 01:38:00,40.6,35.9,30.20,NNW,338,1.4,2.3,83,0.02,RA,,0.04,WeatherDisplay:10.37,2013-01-15 06:38:00,
2013-01-15 01:43:00,40.5,36.0,30.20,NNW,338,2.2,2.2,84,0.02,CLR,,0.04,WeatherDisplay:10.37,2013-01-15 06:43:00,
2013-01-15 01:48:00,40.3,35.8,30.20,North,0,0.9,4.6,84,0.03,RA,,0.05,WeatherDisplay:10.37,2013-01-15 06:48:00,
2013-01-15 01:53:00,40.1,36.0,30.20,NW,315,2.9,2.9,85,0.03,RA,,0.05,WeatherDisplay:10.37,2013-01-15 06:53:00,
2013-01-15 01:58:00,39.9,35.8,30.19,North,0,2.2,3.5,85,0.04,RA,,0.06,WeatherDisplay:10.37,2013-01-15 06:58:00,
2013-01-15 02:03:00,39.9,35.8,30.19,North,0,2.4,4.6,85,0.04,RA,,0.06,WeatherDisplay:10.37,2013-01-15 07:03:00,
2013-01-15 02:08:00,39.7,35.9,30.19,WNW,292,3.3,3.5,86,0.05,RA,,0.07,WeatherDisplay:10.37,2013-01-15 07:08:00,
2013-01-15 02:13:00,39.6,35.7,30.19,NNE,22,0.7,2.3,86,0.05,RA,,0.07,WeatherDisplay:10.37,2013-01-15 07:13:00,
2013-01-15 02:18:00,39.6,35.7,30.19,North,0,0.5,3.5,86,0.05,CLR,,0.07,WeatherDisplay:10.37,2013-01-15 07:18:00,
2013-01-15 02:23:00,39.6,35.7,30.18,North,0,0.2,2.3,86,0.05,RA,,0.08,WeatherDisplay:10.37,2013-01-15 07:23:00,
2013-01-15 02:28:00,39.6,35.7,30.18,North,0,1.4,2.3,86,0.05,RA,,0.08,WeatherDisplay:10.37,2013-01-15 07:28:00,
2013-01-15 02:33:00,39.4,35.5,30.18,North,0,0.5,1.1,86,0.04,CLR,,0.08,WeatherDisplay:10.37,2013-01-15 07:33:00,
2013-01-15 02:38:00,39.4,35.5,30.18,North,0,4.0,4.6,86,0.05,RA,,0.09,WeatherDisplay:10.37,2013-01-15 07:38:00,
2013-01-15 02:43:00,39.2,35.4,30.17,East,90,0.9,2.3,86,0.05,RA,,0.09,WeatherDisplay:10.37,2013-01-15 07:43:00,
2013-01-15 02:48:00,39.2,35.4,30.17,NNW,338,2.9,3.5,86,0.04,CLR,,0.09,WeatherDisplay:10.37,2013-01-15 07:48:00,
2013-01-15 02:53:00,39.2,35.7,30.16,North,0,0.7,2.3,87,0.04,CLR,,0.09,WeatherDisplay:10.37,2013-01-15 07:53:00,
2013-01-15 02:58:00,39.2,35.7,30.17,North,0,0.5,2.3,87,0.03,CLR,,0.09,WeatherDisplay:10.37,2013-01-15 07:58:00,
2013-01-15 03:03:00,39.2,35.7,30.18,NNW,338,0.5,2.3,87,0.04,RA,,0.10,WeatherDisplay:10.37,2013-01-15 08:03:00,
2013-01-15 03:08:00,39.0,35.5,30.18,WNW,292,1.8,2.3,87,0.03,RA,,0.10,WeatherDisplay:10.37,2013-01-15 08:08:00,
2013-01-15 03:13:00,39.0,35.5,30.17,ENE,68,1.8,2.3,87,0.03,,,0.10,WeatherDisplay:10.37,2013-01-15 08:13:00,
2013-01-15 03:18:00,39.0,35.5,30.16,North,0,2.6,3.5,87,0.03,CLR,,0.10,WeatherDisplay:10.37,2013-01-15 08:18:00,
2013-01-15 03:23:00,39.0,35.5,30.16,North,0,1.1,2.3,87,0.03,RA,,0.11,WeatherDisplay:10.37,2013-01-15 08:23:00,
2013-01-15 03:28:00,39.0,35.5,30.16,NNE,22,1.6,2.3,87,0.03,RA,,0.11,WeatherDisplay:10.37,2013-01-15 08:28:00,
2013-01-15 03:33:00,39.0,35.8,30.14,NNE,22,1.4,2.3,88,0.03,,,0.11,WeatherDisplay:10.37,2013-01-15 08:33:00,
2013-01-15 03:38:00,38.8,35.6,30.13,ENE,68,2.6,2.6,88,0.03,RA,,0.12,WeatherDisplay:10.37,2013-01-15 08:38:00,
2013-01-15 03:43:00,38.8,35.6,30.16,WNW,292,1.8,2.3,88,0.03,RA,,0.12,WeatherDisplay:10.37,2013-01-15 08:43:00,
2013-01-15 03:48:00,38.7,35.4,30.18,West,270,3.3,3.3,88,0.04,RA,,0.13,WeatherDisplay:10.37,2013-01-15 08:48:00,
2013-01-15 03:53:00,38.7,35.4,30.15,NE,45,3.3,4.6,88,0.05,RA,,0.14,WeatherDisplay:10.37,2013-01-15 08:53:00,
2013-01-15 03:58:00,38.5,35.2,30.16,WNW,292,0.5,1.1,88,0.05,RA,,0.14,WeatherDisplay:10.37,2013-01-15 08:58:00,
2013-01-15 04:03:00,38.5,35.2,30.18,NNW,338,3.1,3.5,88,0.05,RA,,0.15,WeatherDisplay:10.37,2013-01-15 09:03:00,
2013-01-15 04:08:00,38.5,35.2,30.18,WNW,292,3.1,4.6,88,0.05,RA,,0.15,WeatherDisplay:10.37,2013-01-15 09:08:00,
2013-01-15 04:13:00,38.3,35.3,30.16,NW,315,2.9,4.6,89,0.05,CLR,,0.15,WeatherDisplay:10.37,2013-01-15 09:13:00,
2013-01-15 04:18:00,38.3,35.3,30.18,NNW,338,2.2,3.5,89,0.05,CLR,,0.15,WeatherDisplay:10.37,2013-01-15 09:18:00,
2013-01-15 04:23:00,38.1,34.9,30.16,NE,45,0.7,1.1,88,0.04,CLR,,0.15,WeatherDisplay:10.37,2013-01-15 09:23:00,
2013-01-15 04:28:00,38.1,34.9,30.14,NE,45,1.1,1.1,88,0.04,CLR,,0.15,WeatherDisplay:10.37,2013-01-15 09:28:00,
2013-01-15 04:33:00,38.1,34.9,30.15,NW,315,1.1,3.5,88,0.04,CLR,,0.15,WeatherDisplay:10.37,2013-01-15 09:33:00,
2013-01-15 04:38:00,38.1,34.9,30.16,North,0,0.2,1.1,88,0.03,CLR,,0.15,WeatherDisplay:10.37,2013-01-15 09:38:00,
2013-01-15 04:43:00,38.1,34.9,30.15,NNW,338,0.5,0.5,88,0.03,CLR,,0.15,WeatherDisplay:10.37,2013-01-15 09:43:00,
2013-01-15 04:48:00,38.1,34.9,30.16,North,0,0.0,1.1,88,0.02,CLR,,0.15,WeatherDisplay:10.37,2013-01-15 09:48:00,
2013-01-15 04:53:00,38.1,34.9,30.16,NW,315,0.9,1.1,88,0.01,CLR,,0.15,WeatherDisplay:10.37,2013-01-15 09:53:00,
2013-01-15 04:58:00,38.1,34.9,30.14,NE,45,0.5,1.1,88,0.01,CLR,,0.15,WeatherDisplay:10.37,2013-01-15 09:58:00,
2013-01-15 05:03:00,38.1,34.9,30.13,ENE,68,0.5,1.1,88,0.00,CLR,,0.15,WeatherDisplay:10.37,2013-01-15 10:03:00,
2013-01-15 05:08:00,38.1,34.9,30.14,NNE,22,0.2,1.1,88,0.00,CLR,,0.15,WeatherDisplay:10.37,2013-01-15 10:08:00,
2013-01-15 05:13:00,38.3,35.1,30.14,North,0,0.5,1.1,88,0.00,CLR,,0.15,WeatherDisplay:10.37,2013-01-15 10:13:00,
2013-01-15 05:18:00,38.3,35.1,30.15,NW,315,2.0,2.3,88,0.00,CLR,,0.15,WeatherDisplay:10.37,2013-01-15 10:18:00,
2013-01-15 05:23:00,38.1,35.2,30.15,NE,45,0.5,3.5,89,0.00,CLR,,0.15,WeatherDisplay:10.37,2013-01-15 10:23:00,
2013-01-15 05:28:00,38.1,35.2,30.15,North,0,1.8,2.3,89,0.00,CLR,,0.15,WeatherDisplay:10.37,2013-01-15 10:28:00,
2013-01-15 05:33:00,38.1,34.9,30.15,North,0,0.9,2.3,88,0.00,CLR,,0.15,WeatherDisplay:10.37,2013-01-15 10:33:00,
2013-01-15 05:38:00,38.1,34.9,30.15,North,0,0.0,1.1,88,0.00,CLR,,0.15,WeatherDisplay:10.37,2013-01-15 10:38:00,
2013-01-15 05:43:00,38.1,34.9,30.14,North,0,0.0,0.0,88,0.00,CLR,,0.15,WeatherDisplay:10.37,2013-01-15 10:43:00,
2013-01-15 05:48:00,38.1,35.2,30.14,NNE,22,0.0,1.1,89,0.01,RA,,0.16,WeatherDisplay:10.37,2013-01-15 10:48:00,
2013-01-15 05:53:00,38.1,35.2,30.15,NNW,338,0.5,1.1,89,0.01,RA,,0.16,WeatherDisplay:10.37,2013-01-15 10:53:00,
2013-01-15 05:58:00,38.1,35.2,30.16,NNW,338,0.5,0.0,89,0.01,,,0.16,WeatherDisplay:10.37,2013-01-15 10:58:00,
2013-01-15 06:03:00,38.1,35.2,30.16,North,0,0.0,0.0,89,0.01,CLR,,0.16,WeatherDisplay:10.37,2013-01-15 11:03:00,
2013-01-15 06:08:00,38.3,35.3,30.15,North,0,0.0,0.0,89,0.01,CLR,,0.16,WeatherDisplay:10.37,2013-01-15 11:08:00,
2013-01-15 06:13:00,38.3,35.3,30.15,NNE,22,0.0,0.0,89,0.01,CLR,,0.16,WeatherDisplay:10.37,2013-01-15 11:13:00,
2013-01-15 06:18:00,38.3,35.3,30.16,NNE,22,0.2,0.2,89,0.01,CLR,,0.16,WeatherDisplay:10.37,2013-01-15 11:18:00,
2013-01-15 06:23:00,38.3,35.3,30.17,North,0,0.5,1.1,89,0.01,CLR,,0.16,WeatherDisplay:10.37,2013-01-15 11:23:00,
2013-01-15 06:28:00,38.3,35.3,30.16,North,0,0.0,0.0,89,0.01,CLR,,0.16,WeatherDisplay:10.37,2013-01-15 11:28:00,
2013-01-15 06:33:00,38.5,35.5,30.16,North,0,0.0,0.0,89,0.01,CLR,,0.16,WeatherDisplay:10.37,2013-01-15 11:33:00,
2013-01-15 06:38:00,38.5,35.5,30.16,North,0,0.0,0.0,89,0.01,CLR,,0.16,WeatherDisplay:10.37,2013-01-15 11:38:00,
2013-01-15 06:43:00,38.5,35.5,30.16,North,0,0.0,0.0,89,0.01,CLR,,0.16,WeatherDisplay:10.37,2013-01-15 11:43:00,
2013-01-15 06:48:00,38.5,35.5,30.16,North,0,0.0,0.0,89,0.00,CLR,,0.16,WeatherDisplay:10.37,2013-01-15 11:48:00,
2013-01-15 06:53:00,38.5,35.5,30.16,North,0,0.0,0.0,89,0.00,CLR,,0.16,WeatherDisplay:10.37,2013-01-15 11:53:00,
2013-01-15 06:58:00,38.5,35.5,30.16,North,0,0.0,0.0,89,0.00,CLR,,0.16,WeatherDisplay:10.37,2013-01-15 11:58:00,
2013-01-15 07:03:00,38.5,35.5,30.17,North,0,0.0,0.0,89,0.00,CLR,,0.16,WeatherDisplay:10.37,2013-01-15 12:03:00,
2013-01-15 07:08:00,38.5,35.5,30.18,North,0,0.0,0.0,89,0.00,CLR,,0.16,WeatherDisplay:10.37,2013-01-15 12:08:00,
2013-01-15 07:13:00,38.3,35.3,30.18,North,0,0.0,0.0,89,0.00,CLR,,0.16,WeatherDisplay:10.37,2013-01-15 12:13:00,
2013-01-15 07:18:00,38.5,35.5,30.18,North,0,0.0,0.0,89,0.00,CLR,,0.16,WeatherDisplay:10.37,2013-01-15 12:18:00,
2013-01-15 07:23:00,38.5,35.5,30.19,North,0,0.0,0.0,89,0.00,CLR,,0.16,WeatherDisplay:10.37,2013-01-15 12:23:00,
2013-01-15 07:28:00,38.5,35.5,30.20,North,0,0.0,0.0,89,0.00,CLR,,0.16,WeatherDisplay:10.37,2013-01-15 12:28:00,
2013-01-15 07:33:00,38.5,35.5,30.20,North,0,0.0,0.0,89,0.00,CLR,,0.16,WeatherDisplay:10.37,2013-01-15 12:33:00,
2013-01-15 07:38:00,38.5,35.5,30.20,North,0,0.0,0.0,89,0.00,CLR,,0.16,WeatherDisplay:10.37,2013-01-15 12:38:00,
2013-01-15 07:43:00,38.7,35.7,30.20,North,0,0.0,0.0,89,0.00,CLR,,0.16,WeatherDisplay:10.37,2013-01-15 12:43:00,
2013-01-15 07:48:00,38.7,35.7,30.21,North,0,0.0,0.0,89,0.00,CLR,,0.16,WeatherDisplay:10.37,2013-01-15 12:48:00,
2013-01-15 07:53:00,38.8,35.9,30.21,North,0,0.0,0.0,89,0.00,CLR,,0.16,WeatherDisplay:10.37,2013-01-15 12:53:00,
2013-01-15 07:58:00,38.8,35.9,30.21,North,0,0.0,0.0,89,0.00,CLR,,0.16,WeatherDisplay:10.37,2013-01-15 12:58:00,
2013-01-15 08:03:00,38.8,35.9,30.21,North,0,0.0,0.0,89,0.00,CLR,,0.16,WeatherDisplay:10.37,2013-01-15 13:03:00,
2013-01-15 08:08:00,38.8,35.9,30.21,NNW,338,0.0,0.0,89,0.00,CLR,,0.16,WeatherDisplay:10.37,2013-01-15 13:08:00,
2013-01-15 08:13:00,39.0,36.1,30.21,NNW,338,0.0,0.0,89,0.00,CLR,,0.16,WeatherDisplay:10.37,2013-01-15 13:13:00,
2013-01-15 08:18:00,39.0,36.1,30.21,North,0,0.0,0.0,89,0.00,CLR,,0.16,WeatherDisplay:10.37,2013-01-15 13:18:00,
2013-01-15 08:23:00,39.2,36.2,30.21,North,0,0.0,0.0,89,0.00,CLR,,0.16,WeatherDisplay:10.37,2013-01-15 13:23:00,
2013-01-15 08:28:00,39.2,36.2,30.22,North,0,0.0,0.0,89,0.00,CLR,,0.16,WeatherDisplay:10.37,2013-01-15 13:28:00,
2013-01-15 08:33:00,39.4,36.4,30.22,North,0,0.0,0.0,89,0.00,CLR,,0.16,WeatherDisplay:10.37,2013-01-15 13:33:00,
2013-01-15 08:38:00,39.6,36.6,30.22,WNW,292,0.0,0.0,89,0.00,CLR,,0.16,WeatherDisplay:10.37,2013-01-15 13:38:00,
2013-01-15 08:43:00,39.6,36.6,30.22,WNW,292,0.0,0.0,89,0.00,CLR,,0.16,WeatherDisplay:10.37,2013-01-15 13:43:00,
2013-01-15 08:48:00,39.7,36.8,30.22,WNW,292,0.0,0.0,89,0.00,CLR,,0.16,WeatherDisplay:10.37,2013-01-15 13:48:00,
2013-01-15 08:53:00,39.7,36.8,30.22,WNW,292,0.0,0.0,89,0.00,CLR,,0.16,WeatherDisplay:10.37,2013-01-15 13:53:00,
2013-01-15 08:58:00,39.9,36.9,30.22,NW,315,0.5,1.1,89,0.00,CLR,,0.16,WeatherDisplay:10.37,2013-01-15 13:58:00,
2013-01-15 09:03:00,39.9,36.9,30.22,NNW,338,0.9,1.1,89,0.00,CLR,,0.16,WeatherDisplay:10.37,2013-01-15 14:03:00,
2013-01-15 09:08:00,40.1,37.1,30.21,NNW,338,0.2,0.2,89,0.00,CLR,,0.16,WeatherDisplay:10.37,2013-01-15 14:08:00,
2013-01-15 09:13:00,40.3,37.3,30.21,NW,315,1.1,1.1,89,0.00,CLR,,0.16,WeatherDisplay:10.37,2013-01-15 14:13:00,
2013-01-15 09:18:00,40.5,37.5,30.21,WNW,292,4.3,4.3,89,0.00,CLR,,0.16,WeatherDisplay:10.37,2013-01-15 14:18:00,
2013-01-15 09:23:00,40.5,37.5,30.21,NW,315,0.5,1.1,89,0.00,CLR,,0.16,WeatherDisplay:10.37,2013-01-15 14:23:00,
2013-01-15 09:28:00,40.5,37.5,30.21,NW,315,1.6,2.3,89,0.00,CLR,,0.16,WeatherDisplay:10.37,2013-01-15 14:28:00,
2013-01-15 09:33:00,40.5,37.5,30.22,NNW,338,1.8,2.3,89,0.00,CLR,,0.16,WeatherDisplay:10.37,2013-01-15 14:33:00,
2013-01-15 09:38:00,40.5,37.2,30.22,NW,315,2.9,3.5,88,0.00,CLR,,0.16,WeatherDisplay:10.37,2013-01-15 14:38:00,
2013-01-15 09:43:00,40.3,37.0,30.22,NNW,338,1.1,3.5,88,0.00,CLR,,0.16,WeatherDisplay:10.37,2013-01-15 14:43:00,
2013-01-15 09:48:00,40.5,37.2,30.22,North,0,2.0,3.5,88,0.00,CLR,,0.16,WeatherDisplay:10.37,2013-01-15 14:48:00,
2013-01-15 09:53:00,40.3,37.0,30.22,NNW,338,0.0,0.0,88,0.00,CLR,,0.16,WeatherDisplay:10.37,2013-01-15 14:53:00,
2013-01-15 09:58:00,40.5,37.2,30.22,NW,315,0.9,1.1,88,0.00,CLR,,0.16,WeatherDisplay:10.37,2013-01-15 14:58:00,
2013-01-15 10:03:00,40.5,37.2,30.22,NW,315,1.8,1.8,88,0.00,CLR,,0.16,WeatherDisplay:10.37,2013-01-15 15:03:00,
2013-01-15 10:08:00,40.6,37.1,30.22,West,270,0.5,1.1,87,0.00,CLR,,0.16,WeatherDisplay:10.37,2013-01-15 15:08:00,
2013-01-15 10:13:00,40.5,36.9,30.22,NW,315,0.0,1.1,87,0.00,CLR,,0.16,WeatherDisplay:10.37,2013-01-15 15:13:00,
2013-01-15 10:18:00,40.5,36.6,30.22,NW,315,1.4,3.5,86,0.00,CLR,,0.16,WeatherDisplay:10.37,2013-01-15 15:18:00,
2013-01-15 10:23:00,40.5,36.6,30.22,NW,315,2.6,2.6,86,0.00,CLR,,0.16,WeatherDisplay:10.37,2013-01-15 15:23:00,
2013-01-15 10:28:00,40.8,37.3,30.21,WNW,292,0.0,2.3,87,0.00,CLR,,0.16,WeatherDisplay:10.37,2013-01-15 15:28:00,
2013-01-15 10:33:00,41.2,37.6,30.22,WNW,292,0.0,0.0,87,0.00,CLR,,0.16,WeatherDisplay:10.37,2013-01-15 15:33:00,
2013-01-15 10:38:00,41.7,37.8,30.22,WNW,292,0.5,1.1,86,0.00,CLR,,0.16,WeatherDisplay:10.37,2013-01-15 15:38:00,
2013-01-15 10:43:00,42.1,38.2,30.21,NNW,338,0.7,1.1,86,0.00,CLR,,0.16,WeatherDisplay:10.37,2013-01-15 15:43:00,
2013-01-15 10:48:00,42.4,38.2,30.21,West,270,0.5,2.3,85,0.00,CLR,,0.16,WeatherDisplay:10.37,2013-01-15 15:48:00,
2013-01-15 10:53:00,42.6,38.4,30.21,NNE,22,0.2,1.1,85,0.00,CLR,,0.16,WeatherDisplay:10.37,2013-01-15 15:53:00,
2013-01-15 10:58:00,42.8,38.9,30.21,NW,315,0.5,2.3,86,0.00,CLR,,0.16,WeatherDisplay:10.37,2013-01-15 15:58:00,
2013-01-15 11:03:00,42.8,38.0,30.21,NNW,338,2.2,2.2,83,0.00,CLR,,0.16,WeatherDisplay:10.37,2013-01-15 16:03:00,
2013-01-15 11:08:00,43.0,38.2,30.21,NNW,338,4.7,5.8,83,0.00,CLR,,0.16,WeatherDisplay:10.37,2013-01-15 16:08:00,
2013-01-15 11:13:00,42.8,38.0,30.21,NNW,338,2.0,6.9,83,0.00,CLR,,0.16,WeatherDisplay:10.37,2013-01-15 16:13:00,
2013-01-15 11:18:00,42.6,37.2,30.20,North,0,2.9,4.6,81,0.00,CLR,,0.16,WeatherDisplay:10.37,2013-01-15 16:18:00,
2013-01-15 11:23:00,42.4,37.0,30.20,NNW,338,1.4,4.6,81,0.00,CLR,,0.16,WeatherDisplay:10.37,2013-01-15 16:23:00,
2013-01-15 11:28:00,42.4,36.7,30.20,NW,315,4.7,4.7,80,0.00,CLR,,0.16,WeatherDisplay:10.37,2013-01-15 16:28:00,
2013-01-15 11:33:00,42.3,36.8,30.20,NW,315,1.6,2.3,81,0.00,CLR,,0.16,WeatherDisplay:10.37,2013-01-15 16:33:00,
2013-01-15 11:38:00,42.3,36.8,30.20,West,270,1.8,2.3,81,0.00,CLR,,0.16,WeatherDisplay:10.37,2013-01-15 16:38:00,
2013-01-15 11:43:00,42.4,37.3,30.20,NW,315,1.4,2.3,82,0.00,CLR,,0.16,WeatherDisplay:10.37,2013-01-15 16:43:00,
2013-01-15 11:48:00,42.4,37.0,30.19,WNW,292,0.5,1.1,81,0.00,CLR,,0.16,WeatherDisplay:10.37,2013-01-15 16:48:00,
2013-01-15 11:53:00,42.8,37.4,30.18,West,270,1.4,1.4,81,0.00,CLR,,0.16,WeatherDisplay:10.37,2013-01-15 16:53:00,
2013-01-15 11:58:00,42.8,37.4,30.18,North,0,1.6,5.8,81,0.00,CLR,,0.16,WeatherDisplay:10.37,2013-01-15 16:58:00,
2013-01-15 12:03:00,42.6,37.2,30.19,NW,315,0.9,1.1,81,0.00,CLR,,0.16,WeatherDisplay:10.37,2013-01-15 17:03:00,
2013-01-15 12:08:00,42.6,36.9,30.18,NNW,338,1.1,3.5,80,0.00,CLR,,0.16,WeatherDisplay:10.37,2013-01-15 17:08:00,
2013-01-15 12:13:00,42.4,36.7,30.19,NNW,338,2.4,4.6,80,0.00,CLR,,0.16,WeatherDisplay:10.37,2013-01-15 17:13:00,
2013-01-15 12:18:00,42.6,37.2,30.19,NW,315,3.3,4.6,81,0.00,CLR,,0.16,WeatherDisplay:10.37,2013-01-15 17:18:00,
2013-01-15 12:23:00,42.4,36.7,30.18,NNW,338,3.6,3.6,80,0.00,CLR,,0.16,WeatherDisplay:10.37,2013-01-15 17:23:00,
2013-01-15 12:28:00,42.4,36.7,30.19,North,0,4.3,4.3,80,0.00,CLR,,0.16,WeatherDisplay:10.37,2013-01-15 17:28:00,
2013-01-15 12:33:00,42.6,36.9,30.18,WNW,292,0.5,2.3,80,0.00,CLR,,0.16,WeatherDisplay:10.37,2013-01-15 17:33:00,
2013-01-15 12:38:00,43.0,37.2,30.18,NNE,22,2.0,3.5,80,0.00,CLR,,0.16,WeatherDisplay:10.37,2013-01-15 17:38:00,
2013-01-15 12:43:00,43.2,37.4,30.18,WNW,292,0.5,2.3,80,0.00,CLR,,0.16,WeatherDisplay:10.37,2013-01-15 17:43:00,
2013-01-15 12:48:00,43.2,37.4,30.19,NNW,338,2.4,3.5,80,0.00,CLR,,0.16,WeatherDisplay:10.37,2013-01-15 17:48:00,
2013-01-15 12:53:00,43.2,37.1,30.19,NNW,338,3.3,3.5,79,0.00,CLR,,0.16,WeatherDisplay:10.37,2013-01-15 17:53:00,
2013-01-15 12:58:00,43.2,37.1,30.18,North,0,0.5,1.1,79,0.00,CLR,,0.16,WeatherDisplay:10.37,2013-01-15 17:58:00,
2013-01-15 13:03:00,43.2,37.1,30.18,North,0,1.1,2.3,79,0.00,CLR,,0.16,WeatherDisplay:10.37,2013-01-15 18:03:00,
2013-01-15 13:08:00,43.2,37.1,30.18,NW,315,4.0,4.6,79,0.00,CLR,,0.16,WeatherDisplay:10.37,2013-01-15 18:08:00,
2013-01-15 13:13:00,43.2,37.1,30.19,NNW,338,2.0,3.5,79,0.00,CLR,,0.16,WeatherDisplay:10.37,2013-01-15 18:13:00,
2013-01-15 13:18:00,43.2,37.1,30.18,NW,315,3.6,3.6,79,0.00,CLR,,0.16,WeatherDisplay:10.37,2013-01-15 18:18:00,
2013-01-15 13:23:00,43.3,36.9,30.17,NNW,338,1.8,5.8,78,0.00,CLR,,0.16,WeatherDisplay:10.37,2013-01-15 18:23:00,
2013-01-15 13:28:00,43.5,37.4,30.18,NNW,338,0.9,2.3,79,0.00,CLR,,0.16,WeatherDisplay:10.37,2013-01-15 18:28:00,
2013-01-15 13:33:00,43.5,37.4,30.18,North,0,0.5,2.3,79,0.00,CLR,,0.16,WeatherDisplay:10.37,2013-01-15 18:33:00,
2013-01-15 13:38:00,43.7,37.6,30.18,WNW,292,0.2,2.3,79,0.00,CLR,,0.16,WeatherDisplay:10.37,2013-01-15 18:38:00,
2013-01-15 13:43:00,43.7,37.6,30.18,NNW,338,2.0,3.5,79,0.00,CLR,,0.16,WeatherDisplay:10.37,2013-01-15 18:43:00,
2013-01-15 13:48:00,43.9,37.5,30.18,NNW,338,0.9,2.3,78,0.00,CLR,,0.16,WeatherDisplay:10.37,2013-01-15 18:48:00,
2013-01-15 13:53:00,43.9,37.5,30.18,North,0,3.8,4.6,78,0.00,CLR,,0.16,WeatherDisplay:10.37,2013-01-15 18:53:00,
2013-01-15 13:58:00,43.9,37.1,30.19,NNW,338,2.9,3.5,77,0.00,CLR,,0.16,WeatherDisplay:10.37,2013-01-15 18:58:00,
2013-01-15 14:03:00,43.7,37.0,30.18,NNW,338,1.4,2.3,77,0.00,CLR,,0.16,WeatherDisplay:10.37,2013-01-15 19:03:00,
2013-01-15 14:08:00,43.3,36.6,30.19,NNW,338,2.4,2.4,77,0.00,CLR,,0.16,WeatherDisplay:10.37,2013-01-15 19:08:00,
2013-01-15 14:13:00,43.5,36.8,30.19,NW,315,5.6,5.6,77,0.00,CLR,,0.16,WeatherDisplay:10.37,2013-01-15 19:13:00,
2013-01-15 14:18:00,43.3,36.6,30.18,NNE,22,2.4,4.6,77,0.00,CLR,,0.16,WeatherDisplay:10.37,2013-01-15 19:18:00,
2013-01-15 14:23:00,43.2,36.4,30.19,NW,315,1.1,3.5,77,0.00,CLR,,0.16,WeatherDisplay:10.37,2013-01-15 19:23:00,
2013-01-15 14:28:00,43.0,36.3,30.18,North,0,0.7,3.5,77,0.00,CLR,,0.16,WeatherDisplay:10.37,2013-01-15 19:28:00,
2013-01-15 14:33:00,42.8,36.1,30.19,North,0,1.6,3.5,77,0.00,CLR,,0.16,WeatherDisplay:10.37,2013-01-15 19:33:00,
2013-01-15 14:38:00,42.8,36.1,30.18,North,0,3.3,3.3,77,0.00,CLR,,0.16,WeatherDisplay:10.37,2013-01-15 19:38:00,
2013-01-15 14:43:00,42.8,36.1,30.18,North,0,1.1,2.3,77,0.00,CLR,,0.16,WeatherDisplay:10.37,2013-01-15 19:43:00,
2013-01-15 14:48:00,42.6,35.9,30.18,North,0,1.4,3.5,77,0.00,CLR,,0.16,WeatherDisplay:10.37,2013-01-15 19:48:00,
2013-01-15 14:53:00,42.6,36.2,30.18,NNW,338,3.3,3.3,78,0.00,CLR,,0.16,WeatherDisplay:10.37,2013-01-15 19:53:00,
2013-01-15 14:58:00,42.6,36.2,30.19,North,0,3.3,3.3,78,0.00,CLR,,0.16,WeatherDisplay:10.37,2013-01-15 19:58:00,
2013-01-15 15:03:00,42.4,35.7,30.18,NW,315,0.2,1.1,77,0.00,CLR,,0.16,WeatherDisplay:10.37,2013-01-15 20:03:00,
2013-01-15 15:08:00,42.4,36.1,30.18,NNW,338,1.1,2.3,78,0.00,CLR,,0.16,WeatherDisplay:10.37,2013-01-15 20:08:00,
2013-01-15 15:13:00,42.4,35.7,30.18,NW,315,2.6,4.6,77,0.00,CLR,,0.16,WeatherDisplay:10.37,2013-01-15 20:13:00,
2013-01-15 15:18:00,42.3,35.9,30.18,NNW,338,0.5,1.1,78,0.00,CLR,,0.16,WeatherDisplay:10.37,2013-01-15 20:18:00,
2013-01-15 15:23:00,41.9,35.5,30.18,NNW,338,1.1,2.3,78,0.00,CLR,,0.16,WeatherDisplay:10.37,2013-01-15 20:23:00,
2013-01-15 15:28:00,41.9,35.5,30.18,NNW,338,0.9,3.5,78,0.00,CLR,,0.16,WeatherDisplay:10.37,2013-01-15 20:28:00,
2013-01-15 15:33:00,41.7,35.4,30.17,NNE,22,0.5,1.1,78,0.00,CLR,,0.16,WeatherDisplay:10.37,2013-01-15 20:33:00,
2013-01-15 15:38:00,41.7,35.7,30.18,North,0,0.9,2.3,79,0.00,CLR,,0.16,WeatherDisplay:10.37,2013-01-15 20:38:00,
2013-01-15 15:43:00,41.7,35.7,30.17,North,0,1.1,1.1,79,0.00,CLR,,0.16,WeatherDisplay:10.37,2013-01-15 20:43:00,
2013-01-15 15:48:00,41.5,35.5,30.18,NE,45,0.9,2.3,79,0.00,CLR,,0.16,WeatherDisplay:10.37,2013-01-15 20:48:00,
2013-01-15 15:53:00,41.4,35.3,30.18,NNE,22,2.4,4.6,79,0.00,CLR,,0.16,WeatherDisplay:10.37,2013-01-15 20:53:00,
2013-01-15 15:58:00,41.4,35.3,30.18,NW,315,0.2,1.1,79,0.00,CLR,,0.16,WeatherDisplay:10.37,2013-01-15 20:58:00,
2013-01-15 16:03:00,41.4,35.7,30.18,North,0,0.5,1.1,80,0.00,CLR,,0.16,WeatherDisplay:10.37,2013-01-15 21:03:00,
2013-01-15 16:08:00,41.2,35.5,30.18,North,0,1.6,1.6,80,0.00,CLR,,0.16,WeatherDisplay:10.37,2013-01-15 21:08:00,
2013-01-15 16:13:00,41.2,35.5,30.18,NW,315,1.4,2.3,80,0.00,CLR,,0.16,WeatherDisplay:10.37,2013-01-15 21:13:00,
2013-01-15 16:18:00,41.0,35.3,30.18,North,0,1.8,4.6,80,0.00,CLR,,0.16,WeatherDisplay:10.37,2013-01-15 21:18:00,
2013-01-15 16:23:00,40.8,35.1,30.17,North,0,0.0,2.3,80,0.00,CLR,,0.16,WeatherDisplay:10.37,2013-01-15 21:23:00,
2013-01-15 16:28:00,40.8,35.4,30.17,North,0,0.5,1.1,81,0.00,CLR,,0.16,WeatherDisplay:10.37,2013-01-15 21:28:00,
2013-01-15 16:33:00,40.6,35.3,30.16,NNE,22,0.0,1.1,81,0.00,CLR,,0.16,WeatherDisplay:10.37,2013-01-15 21:33:00,
2013-01-15 16:38:00,40.6,35.3,30.16,NE,45,0.5,1.1,81,0.00,CLR,,0.16,WeatherDisplay:10.37,2013-01-15 21:38:00,
2013-01-15 16:43:00,40.5,35.1,30.16,North,0,2.6,2.6,81,0.00,CLR,,0.16,WeatherDisplay:10.37,2013-01-15 21:43:00,
2013-01-15 16:48:00,40.3,34.9,30.16,NNW,338,0.9,2.3,81,0.00,CLR,,0.16,WeatherDisplay:10.37,2013-01-15 21:48:00,
2013-01-15 16:53:00,40.1,34.7,30.18,North,0,0.7,1.1,81,0.00,CLR,,0.16,WeatherDisplay:10.37,2013-01-15 21:53:00,
2013-01-15 16:58:00,39.9,34.2,30.18,NW,315,0.0,1.1,80,0.00,CLR,,0.16,WeatherDisplay:10.37,2013-01-15 21:58:00,
2013-01-15 17:03:00,39.9,34.2,30.19,NW,315,0.0,1.1,80,0.00,CLR,,0.16,WeatherDisplay:10.37,2013-01-15 22:03:00,
2013-01-15 17:08:00,39.9,34.6,30.19,NNW,338,0.2,1.1,81,0.00,CLR,,0.16,WeatherDisplay:10.37,2013-01-15 22:08:00,
2013-01-15 17:13:00,39.7,34.4,30.18,NNW,338,1.6,1.6,81,0.00,CLR,,0.16,WeatherDisplay:10.37,2013-01-15 22:13:00,
2013-01-15 17:18:00,39.7,34.4,30.19,NNW,338,0.9,2.3,81,0.00,CLR,,0.16,WeatherDisplay:10.37,2013-01-15 22:18:00,
2013-01-15 17:23:00,39.6,34.5,30.20,NNW,338,0.2,2.3,82,0.00,CLR,,0.16,WeatherDisplay:10.37,2013-01-15 22:23:00,
2013-01-15 17:28:00,39.7,34.7,30.19,NNW,338,0.9,2.3,82,0.00,CLR,,0.16,WeatherDisplay:10.37,2013-01-15 22:28:00,
2013-01-15 17:33:00,39.7,34.7,30.19,NNW,338,0.7,1.1,82,0.00,CLR,,0.16,WeatherDisplay:10.37,2013-01-15 22:33:00,
2013-01-15 17:38:00,39.7,34.7,30.19,NW,315,0.5,1.1,82,0.00,CLR,,0.16,WeatherDisplay:10.37,2013-01-15 22:38:00,
2013-01-15 17:43:00,39.7,34.7,30.19,NNW,338,0.7,2.3,82,0.00,CLR,,0.16,WeatherDisplay:10.37,2013-01-15 22:43:00,
2013-01-15 17:48:00,39.7,34.7,30.19,NNE,22,0.7,0.7,82,0.00,CLR,,0.16,WeatherDisplay:10.37,2013-01-15 22:48:00,
2013-01-15 17:53:00,39.6,34.5,30.20,NW,315,0.5,1.1,82,0.00,CLR,,0.16,WeatherDisplay:10.37,2013-01-15 22:53:00,
2013-01-15 17:58:00,39.6,34.5,30.19,North,0,0.5,2.3,82,0.00,CLR,,0.16,WeatherDisplay:10.37,2013-01-15 22:58:00,
2013-01-15 18:03:00,39.6,34.5,30.19,North,0,0.2,2.3,82,0.00,CLR,,0.16,WeatherDisplay:10.37,2013-01-15 23:03:00,
2013-01-15 18:08:00,39.6,34.5,30.18,NNW,338,0.2,1.1,82,0.00,CLR,,0.16,WeatherDisplay:10.37,2013-01-15 23:08:00,
2013-01-15 18:13:00,39.6,34.5,30.19,North,0,0.5,0.5,82,0.00,CLR,,0.16,WeatherDisplay:10.37,2013-01-15 23:13:00,
2013-01-15 18:18:00,39.4,34.3,30.19,NNW,338,1.8,1.8,82,0.00,CLR,,0.16,WeatherDisplay:10.37,2013-01-15 23:18:00,
2013-01-15 18:23:00,39.4,34.3,30.19,North,0,2.4,2.4,82,0.00,CLR,,0.16,WeatherDisplay:10.37,2013-01-15 23:23:00,
2013-01-15 18:28:00,39.4,34.6,30.19,North,0,0.0,2.3,83,0.00,CLR,,0.16,WeatherDisplay:10.37,2013-01-15 23:28:00,
2013-01-15 18:33:00,39.4,34.3,30.20,NNW,338,0.2,1.1,82,0.00,CLR,,0.16,WeatherDisplay:10.37,2013-01-15 23:33:00,
2013-01-15 18:38:00,39.4,34.6,30.19,NNE,22,0.5,1.1,83,0.00,CLR,,0.16,WeatherDisplay:10.37,2013-01-15 23:38:00,
2013-01-15 18:43:00,39.4,34.6,30.19,North,0,0.5,1.1,83,0.00,CLR,,0.16,WeatherDisplay:10.37,2013-01-15 23:43:00,
2013-01-15 18:48:00,39.6,34.5,30.19,North,0,0.5,0.5,82,0.00,CLR,,0.16,WeatherDisplay:10.37,2013-01-15 23:48:00,
2013-01-15 18:53:00,39.4,34.6,30.19,NNW,338,0.7,1.1,83,0.00,CLR,,0.16,WeatherDisplay:10.37,2013-01-15 23:53:00,
2013-01-15 18:58:00,39.4,34.6,30.19,North,0,0.5,1.1,83,0.00,CLR,,0.16,WeatherDisplay:10.37,2013-01-15 23:58:00,
2013-01-15 19:03:00,39.6,34.8,30.18,NNE,22,0.0,0.0,83,0.00,CLR,,0.16,WeatherDisplay:10.37,2013-01-16 00:03:00,
2013-01-15 19:08:00,39.4,34.6,30.18,NNW,338,1.1,1.1,83,0.00,CLR,,0.16,WeatherDisplay:10.37,2013-01-16 00:08:00,
2013-01-15 19:13:00,39.4,34.6,30.19,North,0,0.5,1.1,83,0.00,CLR,,0.16,WeatherDisplay:10.37,2013-01-16 00:13:00,
2013-01-15 19:18:00,39.2,34.5,30.20,NNW,338,0.2,1.1,83,0.00,CLR,,0.16,WeatherDisplay:10.37,2013-01-16 00:18:00,
2013-01-15 19:23:00,39.2,34.5,30.20,NNW,338,0.5,0.0,83,0.00,CLR,,0.16,WeatherDisplay:10.37,2013-01-16 00:23:00,
2013-01-15 19:28:00,39.2,34.5,30.19,WNW,292,0.2,1.1,83,0.00,CLR,,0.16,WeatherDisplay:10.37,2013-01-16 00:28:00,
2013-01-15 19:33:00,39.2,34.5,30.19,NNW,338,0.9,2.3,83,0.00,CLR,,0.16,WeatherDisplay:10.37,2013-01-16 00:33:00,
2013-01-15 19:38:00,39.2,34.5,30.19,NNW,338,1.1,1.1,83,0.00,CLR,,0.16,WeatherDisplay:10.37,2013-01-16 00:38:00,
2013-01-15 19:43:00,39.2,34.5,30.18,North,0,0.5,2.3,83,0.00,CLR,,0.16,WeatherDisplay:10.37,2013-01-16 00:43:00,
2013-01-15 19:48:00,39.2,34.5,30.18,NNW,338,0.5,1.1,83,0.00,CLR,,0.16,WeatherDisplay:10.37,2013-01-16 00:48:00,
2013-01-15 19:53:00,39.2,34.8,30.18,North,0,1.1,1.1,84,0.00,CLR,,0.16,WeatherDisplay:10.37,2013-01-16 00:53:00,
2013-01-15 19:58:00,39.2,34.5,30.18,NNW,338,1.8,2.3,83,0.00,CLR,,0.16,WeatherDisplay:10.37,2013-01-16 00:58:00,
2013-01-15 20:03:00,39.2,34.5,30.18,North,0,2.4,3.5,83,0.00,CLR,,0.16,WeatherDisplay:10.37,2013-01-16 01:03:00,
2013-01-15 20:08:00,39.2,34.5,30.18,North,0,0.5,1.1,83,0.00,CLR,,0.16,WeatherDisplay:10.37,2013-01-16 01:08:00,
2013-01-15 20:13:00,39.2,34.5,30.18,NNE,22,1.1,2.3,83,0.00,CLR,,0.16,WeatherDisplay:10.37,2013-01-16 01:13:00,
2013-01-15 20:18:00,39.2,34.2,30.18,NW,315,1.1,2.3,82,0.00,CLR,,0.16,WeatherDisplay:10.37,2013-01-16 01:18:00,
2013-01-15 20:23:00,39.2,34.2,30.18,NW,315,2.6,3.5,82,0.00,CLR,,0.16,WeatherDisplay:10.37,2013-01-16 01:23:00,
2013-01-15 20:28:00,39.2,34.2,30.18,NNE,22,2.2,4.6,82,0.00,CLR,,0.16,WeatherDisplay:10.37,2013-01-16 01:28:00,
2013-01-15 20:33:00,39.4,34.3,30.19,WNW,292,0.5,0.0,82,0.00,CLR,,0.16,WeatherDisplay:10.37,2013-01-16 01:33:00,
2013-01-15 20:38:00,39.4,34.3,30.19,WNW,292,0.5,0.5,82,0.00,CLR,,0.16,WeatherDisplay:10.37,2013-01-16 01:38:00,
2013-01-15 20:43:00,39.6,34.5,30.19,WNW,292,0.5,0.5,82,0.00,CLR,,0.16,WeatherDisplay:10.37,2013-01-16 01:43:00,
2013-01-15 20:48:00,39.7,34.7,30.18,WNW,292,0.5,0.0,82,0.00,CLR,,0.16,WeatherDisplay:10.37,2013-01-16 01:48:00,
2013-01-15 20:53:00,39.7,34.4,30.18,WNW,292,0.5,0.5,81,0.00,CLR,,0.16,WeatherDisplay:10.37,2013-01-16 01:53:00,
2013-01-15 20:58:00,39.6,34.2,30.19,WNW,292,0.5,0.5,81,0.00,CLR,,0.16,WeatherDisplay:10.37,2013-01-16 01:58:00,
2013-01-15 21:03:00,39.6,34.2,30.18,WNW,292,0.5,0.5,81,0.00,CLR,,0.16,WeatherDisplay:10.37,2013-01-16 02:03:00,
2013-01-15 21:08:00,39.6,34.5,30.18,WNW,292,0.5,0.5,82,0.00,CLR,,0.16,WeatherDisplay:10.37,2013-01-16 02:08:00,
2013-01-15 21:13:00,39.6,34.5,30.18,WNW,292,0.5,0.5,82,0.00,CLR,,0.16,WeatherDisplay:10.37,2013-01-16 02:13:00,
2013-01-15 21:18:00,39.4,34.3,30.17,WNW,292,0.5,0.5,82,0.00,CLR,,0.16,WeatherDisplay:10.37,2013-01-16 02:18:00,
2013-01-15 21:23:00,39.4,34.3,30.18,WNW,292,0.5,0.5,82,0.00,CLR,,0.16,WeatherDisplay:10.37,2013-01-16 02:23:00,
2013-01-15 21:28:00,39.4,34.3,30.18,WNW,292,0.5,0.5,82,0.00,CLR,,0.16,WeatherDisplay:10.37,2013-01-16 02:28:00,
2013-01-15 21:33:00,39.6,34.5,30.18,WNW,292,0.5,0.5,82,0.00,CLR,,0.16,WeatherDisplay:10.37,2013-01-16 02:33:00,
2013-01-15 21:38:00,39.6,34.5,30.17,WNW,292,0.5,0.5,82,0.00,CLR,,0.16,WeatherDisplay:10.37,2013-01-16 02:38:00,
2013-01-15 21:43:00,39.6,34.5,30.18,WNW,292,0.5,0.5,82,0.00,CLR,,0.16,WeatherDisplay:10.37,2013-01-16 02:43:00,
2013-01-15 21:48:00,39.6,34.5,30.17,WNW,292,0.5,0.5,82,0.00,CLR,,0.16,WeatherDisplay:10.37,2013-01-16 02:48:00,
2013-01-15 21:53:00,39.6,34.5,30.18,North,0,0.7,1.1,82,0.00,CLR,,0.16,WeatherDisplay:10.37,2013-01-16 02:53:00,
2013-01-15 21:58:00,39.6,34.5,30.18,North,0,0.2,0.2,82,0.00,CLR,,0.16,WeatherDisplay:10.37,2013-01-16 02:58:00,
2013-01-15 22:03:00,39.7,34.7,30.18,NNW,338,0.2,1.1,82,0.00,CLR,,0.16,WeatherDisplay:10.37,2013-01-16 03:03:00,
2013-01-15 22:08:00,39.6,34.5,30.18,North,0,0.5,2.3,82,0.00,CLR,,0.16,WeatherDisplay:10.37,2013-01-16 03:08:00,
2013-01-15 22:13:00,39.7,34.7,30.18,NNE,22,0.2,1.1,82,0.00,CLR,,0.16,WeatherDisplay:10.37,2013-01-16 03:13:00,
2013-01-15 22:18:00,39.7,34.7,30.18,NNW,338,0.9,1.1,82,0.00,CLR,,0.16,WeatherDisplay:10.37,2013-01-16 03:18:00,
2013-01-15 22:23:00,39.6,34.5,30.18,ENE,68,0.9,1.1,82,0.00,CLR,,0.16,WeatherDisplay:10.37,2013-01-16 03:23:00,
2013-01-15 22:28:00,39.6,34.5,30.17,NNE,22,0.2,1.1,82,0.00,CLR,,0.16,WeatherDisplay:10.37,2013-01-16 03:28:00,
2013-01-15 22:33:00,39.6,34.5,30.17,NNW,338,0.2,2.3,82,0.00,CLR,,0.16,WeatherDisplay:10.37,2013-01-16 03:33:00,
2013-01-15 22:38:00,39.7,34.7,30.18,NNW,338,2.4,0.0,82,0.00,CLR,,0.16,WeatherDisplay:10.37,2013-01-16 03:38:00,
2013-01-15 22:43:00,39.6,34.5,30.18,NW,315,0.9,0.0,82,0.00,CLR,,0.16,WeatherDisplay:10.37,2013-01-16 03:43:00,
2013-01-15 22:48:00,39.7,34.7,30.18,NNW,338,0.5,1.1,82,0.00,CLR,,0.16,WeatherDisplay:10.37,2013-01-16 03:48:00,
2013-01-15 22:53:00,39.7,34.7,30.18,North,0,1.1,1.1,82,0.00,CLR,,0.16,WeatherDisplay:10.37,2013-01-16 03:53:00,
2013-01-15 22:58:00,39.7,34.7,30.18,North,0,0.0,0.0,82,0.00,CLR,,0.16,WeatherDisplay:10.37,2013-01-16 03:58:00,
2013-01-15 23:03:00,39.7,34.7,30.18,NNE,22,0.0,1.1,82,0.00,CLR,,0.16,WeatherDisplay:10.37,2013-01-16 04:03:00,
2013-01-15 23:08:00,39.7,34.7,30.18,North,0,0.5,0.5,82,0.00,CLR,,0.16,WeatherDisplay:10.37,2013-01-16 04:08:00,
2013-01-15 23:13:00,39.7,34.7,30.17,NNE,22,0.2,0.2,82,0.00,CLR,,0.16,WeatherDisplay:10.37,2013-01-16 04:13:00,
2013-01-15 23:18:00,39.7,34.7,30.17,NE,45,0.2,1.1,82,0.00,CLR,,0.16,WeatherDisplay:10.37,2013-01-16 04:18:00,
2013-01-15 23:23:00,39.7,34.7,30.17,North,0,0.5,0.0,82,0.00,CLR,,0.16,WeatherDisplay:10.37,2013-01-16 04:23:00,
2013-01-15 23:28:00,39.7,34.7,30.16,NNE,22,0.5,1.1,82,0.00,CLR,,0.16,WeatherDisplay:10.37,2013-01-16 04:28:00,
2013-01-15 23:33:00,39.7,34.7,30.17,NNE,22,0.2,0.5,82,0.00,CLR,,0.16,WeatherDisplay:10.37,2013-01-16 04:33:00,
2013-01-15 23:39:00,39.6,34.5,30.17,North,0,0.7,1.1,82,0.00,CLR,,0.16,WeatherDisplay:10.37,2013-01-16 04:39:00,
2013-01-15 23:44:00,39.6,34.5,30.16,NE,45,0.2,2.3,82,0.00,CLR,,0.16,WeatherDisplay:10.37,2013-01-16 04:44:00,
2013-01-15 23:49:00,39.6,34.5,30.15,NE,45,0.5,2.3,82,0.00,CLR,,0.16,WeatherDisplay:10.37,2013-01-16 04:49:00,
2013-01-15 23:54:00,39.6,34.5,30.16,NNE,22,0.7,1.1,82,0.00,CLR,,0.16,WeatherDisplay:10.37,2013-01-16 04:54:00,
2013-01-15 23:59:00,39.6,34.5,30.15,ENE,68,1.1,2.3,82,0.00,CLR,,0.16,WeatherDisplay:10.37,2013-01-16 04:59:00,